Stations météo

réclame
Mon MeteoGroup
Istres, France (7647): Température de l'air & dewpoint: 06.12.2017 13:00:00 - 12.12.2017 13:00:00 (CET)Istres, France (7647): Température de l'air 5cm: 06.12.2017 13:00:00 - 12.12.2017 13:00:00 (CET)Istres, France (7647): Vitesse du vent & gusts: 06.12.2017 13:00:00 - 12.12.2017 13:00:00 (CET)Istres, France (7647): Direction du vent: 06.12.2017 13:00:00 - 12.12.2017 13:00:00 (CET)Istres, France (7647): reduced air pressure: 06.12.2017 13:00:00 - 12.12.2017 13:00:00 (CET)Istres, France (7647): visibility: 06.12.2017 13:00:00 - 12.12.2017 13:00:00 (CET)Istres, France (7647): Quantités de précipitations: 06.12.2017 13:00:00 - 12.12.2017 13:00:00 (CET)
Date & Time tt [°C] td [°C] tt 5cm [°C] ff [km/h] ff [knt] fx [km/h] fx [knt] dd ppp [hPa] vv [km] rr [mm]
12.12.2017 13:00:00 9,5 4,5 9,6 9 5 15 8 WNW 1013,1 10 0,0
12.12.2017 12:00:00 7,9 5,0 8,0 8 4 14 7 NNW 1012,9 10 0,0
12.12.2017 11:00:00 7,2 5,2 7,4 5 3 11 6 NNW 1012,9 10 0,0
12.12.2017 10:00:00 5,9 5,0 4,6 5 3 10 5 NE 1012,3 35 0,0
12.12.2017 09:00:00 4,5 3,9 2,5 5 3 11 6 WSW 1011,0 10 0,0
12.12.2017 08:00:00 3,8 3,1 1,7 4 2 14 8 E 1009,8 10 0,0
12.12.2017 07:00:00 3,3 2,6 1,5 8 4 11 6 E 1008,6 10 0,0
12.12.2017 06:00:00 3,3 2,4 1,5 7 4 10 5 ENE 1007,3 18 0,0
12.12.2017 05:00:00 3,8 2,6 1,9 4 2 13 7 NNE 1006,7 38 0,0
12.12.2017 04:00:00 5,2 3,8 2,2 5 3 14 8 - 1005,9 10 0,0
12.12.2017 03:00:00 5,3 3,9 2,1 5 3 13 7 - 1005,0 10 0,0
12.12.2017 02:00:00 6,3 4,8 2,0 9 5 12 6 W 1003,9 10 0,0
12.12.2017 01:00:00 6,2 5,3 2,5 8 5 13 7 WSW 1003,0 60 0,0
12.12.2017 00:00:00 6,3 5,6 3,4 4 2 9 5 SSW 1001,8 24 0,0
11.12.2017 23:00:00 6,5 5,6 4,4 5 3 7 4 ESE 1000,5 8 0,0
11.12.2017 22:00:00 7,4 6,3 6,0 4 2 5 3 E 999,1 10 0,0
11.12.2017 21:00:00 7,5 6,3 6,3 4 2 15 8 WNW 997,7 10 0,0
11.12.2017 20:00:00 8,0 6,8 7,3 13 7 17 9 W 996,3 10 0,0
11.12.2017 19:00:00 8,6 7,4 8,0 9 5 26 14 W 995,1 10 0,0
11.12.2017 18:00:00 9,1 7,7 8,7 18 10 26 14 W 993,6 10 0,0
11.12.2017 17:00:00 9,6 8,0 9,4 16 9 28 15 W 991,6 10 0,0
11.12.2017 16:00:00 10,4 8,5 10,3 18 10 30 16 W 989,9 10 0,0
11.12.2017 15:00:00 11,6 11,0 11,2 11 6 18 10 WSW 988,6 10 0,4
11.12.2017 14:00:00 11,7 10,9 11,4 5 3 16 9 S 987,6 6 5,9
11.12.2017 13:00:00 12,3 11,2 11,9 13 7 26 14 S 988,2 4,9 2,0
11.12.2017 12:00:00 13,2 10,6 12,5 18 10 48 26 S 988,5 10 0,0
11.12.2017 11:00:00 14,5 12,0 13,3 31 17 56 30 S 988,3 10 0,2
11.12.2017 10:00:00 14,6 12,6 13,3 39 21 63 34 SSE 987,8 7 0,0
11.12.2017 09:00:00 14,8 11,9 13,5 44 24 66 36 SSE 987,5 10 0,0
11.12.2017 08:00:00 14,8 11,8 13,3 42 23 67 36 SSE 987,6 11 0,0
11.12.2017 07:00:00 14,6 11,9 13,0 42 23 63 34 SSE 988,1 10 0,2
11.12.2017 06:00:00 14,2 12,4 13,0 35 19 58 31 SE 988,8 9 0,6
11.12.2017 05:00:00 14,6 12,1 13,3 39 21 63 34 SE 989,8 10 0,0
11.12.2017 04:00:00 14,7 12,0 13,9 37 20 58 31 SE 990,5 10 0,0
11.12.2017 03:00:00 14,5 12,0 13,6 35 19 51 27 SE 991,9 10 0,0
11.12.2017 02:00:00 14,3 12,2 13,5 35 19 55 30 SE 992,2 10 0,0
11.12.2017 01:00:00 14,1 12,5 12,8 31 17 49 26 SE 993,1 10 0,0
11.12.2017 00:00:00 13,3 12,0 10,9 29 16 39 21 SE 994,2 10 0,0
10.12.2017 23:00:00 11,6 11,0 10,4 15 8 28 15 E 996,1 10 0,0
10.12.2017 22:00:00 10,9 10,4 9,8 21 11 30 16 E 996,7 10 0,0
10.12.2017 21:00:00 10,1 9,8 9,1 15 8 22 12 E 998,4 9 0,0
10.12.2017 20:00:00 9,5 9,0 9,0 13 7 21 11 E 999,7 5 0,4
10.12.2017 19:00:00 9,3 8,8 8,5 15 8 22 12 E 1000,0 3,3 1,0
10.12.2017 18:00:00 9,0 8,5 7,9 10 5 15 8 E 1001,3 1,5 1,1
10.12.2017 17:00:00 8,3 7,9 7,6 5 3 17 9 - 1002,2 3,6 0,8
10.12.2017 16:00:00 7,8 7,2 7,2 13 7 20 11 E 1002,9 3,8 2,2
10.12.2017 15:00:00 7,4 6,7 6,7 15 8 19 11 E 1004,2 5 1,8
10.12.2017 14:00:00 7,2 5,8 6,7 16 9 30 16 E 1005,1 12 0,6
10.12.2017 13:00:00 7,6 4,9 7,2 15 8 27 15 E 1006,5 10 0,0
10.12.2017 12:00:00 6,6 3,4 6,5 18 10 28 15 E 1007,8 10 0,0
10.12.2017 11:00:00 6,3 2,4 5,7 22 12 31 17 E 1009,1 53 0,0
10.12.2017 10:00:00 5,5 1,0 4,4 21 11 33 18 E 1009,5 60 0,0
10.12.2017 09:00:00 4,5 -1,1 3,7 21 11 37 20 ENE 1010,5 10 0,0
10.12.2017 08:00:00 3,8 -3,7 3,3 29 16 42 23 E 1011,3 10 0,0
10.12.2017 07:00:00 3,5 -2,7 2,2 16 9 25 14 E 1012,3 10 0,0
10.12.2017 06:00:00 3,1 -3,9 2,8 14 7 19 11 NE 1013,9 40 0,0
10.12.2017 05:00:00 3,5 -1,9 3,1 9 5 16 9 NE 1014,8 10 0,0
10.12.2017 04:00:00 3,2 -3,4 2,5 9 5 14 7 E 1015,8 10 0,0
10.12.2017 03:00:00 2,8 -3,3 1,6 5 3 17 9 SE 1017,2 10 0,0
10.12.2017 02:00:00 1,3 -2,3 0,1 13 7 19 10 NNE 1017,3 10 0,0
10.12.2017 01:00:00 0,2 -2,3 -1,0 5 3 13 7 E 1018,7 10 0,0
10.12.2017 00:00:00 1,7 -3,0 -2,5 11 6 13 7 NNW 1019,1 10 0,0
09.12.2017 23:00:00 -0,8 -3,0 -3,0 5 3 11 6 WNW 1020,0 10 0,0
09.12.2017 22:00:00 -0,4 -3,4 -2,6 8 4 10 5 WNW 1020,3 10 0,0
09.12.2017 21:00:00 0,7 -3,2 -0,6 5 3 15 8 WNW 1020,4 10 0,0
09.12.2017 20:00:00 0,9 -3,4 -0,3 15 8 18 10 WNW 1020,8 10 0,0
09.12.2017 19:00:00 1,6 -3,5 0,3 13 7 17 9 NW 1020,5 10 0,0
09.12.2017 18:00:00 4,0 -4,2 2,7 13 7 27 14 NW 1020,7 10 0,0
09.12.2017 17:00:00 5,5 -3,9 4,8 16 9 34 18 N 1020,7 10 0,0
09.12.2017 16:00:00 6,4 -3,3 6,1 16 9 43 23 N 1020,8 60 0,0
09.12.2017 15:00:00 7,8 -4,3 9,9 26 14 48 26 NNW 1020,9 10 0,0
09.12.2017 14:00:00 7,7 -4,1 10,3 31 17 51 28 NW 1021,5 10 0,0
09.12.2017 13:00:00 7,4 -3,5 8,9 34 18 53 28 NNW 1022,2 10 0,0
09.12.2017 12:00:00 6,7 -3,6 9,5 34 18 48 26 NNW 1022,7 10 0,0
09.12.2017 11:00:00 5,9 -2,2 7,4 24 13 39 21 NW 1023,1 10 0,0
09.12.2017 10:00:00 4,5 -1,9 4,0 24 13 34 18 NW 1022,6 60 0,0
09.12.2017 09:00:00 1,5 -2,3 -2,7 15 8 21 11 WNW 1022,2 54 0,0
09.12.2017 08:00:00 -1,1 -3,6 -2,7 9 5 21 12 WNW 1021,8 10 0,0
09.12.2017 07:00:00 0,8 -3,3 -0,2 16 9 29 15 WNW 1021,1 10 0,0
09.12.2017 06:00:00 1,5 -3,6 -0,2 18 10 27 15 NW 1020,6 10 0,0
09.12.2017 05:00:00 1,2 -3,5 0,1 15 8 29 16 NW 1020,5 10 0,0
09.12.2017 04:00:00 2,6 -3,1 1,8 24 13 31 17 W 1020,2 10 0,0
09.12.2017 03:00:00 3,0 -3,2 2,1 22 12 41 22 WNW 1020,3 10 0,0
09.12.2017 02:00:00 4,4 -3,2 2,8 31 17 42 23 NW 1019,8 10 0,0
09.12.2017 01:00:00 4,8 -3,0 3,6 26 14 43 23 WNW 1019,7 10 0,0
09.12.2017 00:00:00 4,9 -1,3 3,5 28 15 40 21 NW 1020,1 10 0,0
08.12.2017 23:00:00 5,9 -2,0 2,8 28 15 40 22 NW 1020,1 10 0,0
08.12.2017 22:00:00 6,2 -2,4 4,3 13 7 33 18 NW 1020,1 10 0,0
08.12.2017 21:00:00 6,2 -1,5 2,8 22 12 30 16 NW 1019,9 10 0,0
08.12.2017 20:00:00 7,5 -1,7 5,3 25 14 38 20 W 1020,0 60 0,0
08.12.2017 19:00:00 7,7 -1,5 5,0 24 13 37 20 W 1019,4 10 0,0
08.12.2017 18:00:00 8,2 -0,3 6,9 18 10 35 19 WNW 1019,3 10 0,0
08.12.2017 17:00:00 8,7 5,3 8,0 16 9 40 22 NW 1019,1 19 0,0
08.12.2017 16:00:00 10,5 5,9 10,8 29 16 46 25 NW 1018,8 10 0,0
08.12.2017 15:00:00 11,8 8,1 12,0 24 13 39 21 WNW 1018,3 10 0,0
08.12.2017 14:00:00 11,0 8,2 11,5 21 11 29 16 WNW 1018,9 8 0,0
08.12.2017 13:00:00 10,6 8,0 11,4 15 8 23 12 W 1019,4 10 0,0
08.12.2017 12:00:00 10,1 9,0 10,6 9 5 13 7 WSW 1019,9 6 0,0
08.12.2017 11:00:00 9,4 8,8 9,8 4 2 10 6 NNW 1020,9 4,8 0,0
08.12.2017 10:00:00 9,4 8,8 8,2 2 1 8 5 W 1020,9 3,2 0,0
08.12.2017 09:00:00 8,4 7,8 7,5 5 3 9 5 NE 1020,7 3,1 0,2
08.12.2017 08:00:00 8,2 7,4 7,6 0 0 10 5 N 1021,2 3,3 0,0
08.12.2017 07:00:00 8,3 7,7 7,4 8 4 10 6 E 1021,1 3,5 0,4
08.12.2017 06:00:00 7,8 6,9 7,1 8 4 9 5 E 1021,7 4,8 0,2
08.12.2017 05:00:00 7,9 7,0 7,1 4 2 9 5 - 1022,1 6 0,0
08.12.2017 04:00:00 7,9 6,8 7,1 5 3 11 6 ENE 1022,9 7 0,0
08.12.2017 03:00:00 7,4 6,5 6,6 5 3 15 8 - 1023,5 7 0,0
08.12.2017 02:00:00 6,9 6,0 5,2 10 5 14 8 NNE 1024,4 4,8 0,0
08.12.2017 01:00:00 6,0 5,1 4,6 8 4 13 7 NNE 1025,0 5 0,0
08.12.2017 00:00:00 6,5 5,4 6,0 8 4 13 7 NNE 1025,9 4,8 0,0
07.12.2017 23:00:00 7,5 6,4 6,0 11 6 14 8 ENE 1026,4 5 0,0
07.12.2017 22:00:00 6,6 5,5 5,6 9 5 18 10 E 1026,8 5 0,0
07.12.2017 21:00:00 7,1 5,9 4,0 9 5 13 7 E 1027,2 6 0,0
07.12.2017 20:00:00 5,9 4,5 2,7 5 3 9 5 ENE 1027,7 5 0,0
07.12.2017 19:00:00 7,1 4,9 2,5 5 3 9 5 SE 1027,7 9 0,0
07.12.2017 18:00:00 8,2 5,5 3,6 5 3 7 4 S 1027,6 13 0,0
07.12.2017 17:00:00 10,7 6,4 9,2 5 3 16 9 - 1027,8 10 0,0
07.12.2017 16:00:00 11,8 6,3 11,9 8 4 21 11 S 1027,8 10 0,0
07.12.2017 15:00:00 11,9 6,4 12,4 14 7 25 14 S 1027,9 20 0,0
07.12.2017 14:00:00 13,8 6,9 15,2 13 7 24 13 S 1028,4 10 0,0
07.12.2017 13:00:00 14,4 7,0 15,8 16 9 37 20 S 1029,0 19 0,0
07.12.2017 12:00:00 14,3 7,3 13,9 21 11 29 16 S 1029,6 10 0,0
07.12.2017 11:00:00 11,8 6,5 10,9 13 7 19 11 E 1030,3 18 0,0
07.12.2017 10:00:00 10,1 5,7 8,5 13 7 22 12 E 1030,4 10 0,0
07.12.2017 09:00:00 8,4 4,4 7,3 18 10 25 13 E 1030,3 20 0,0
07.12.2017 08:00:00 8,4 4,2 7,7 19 10 26 14 ENE 1030,3 13 0,0
07.12.2017 07:00:00 8,0 4,8 6,7 9 5 17 9 NE 1030,3 10 0,0
07.12.2017 06:00:00 6,9 4,4 5,9 11 6 17 9 NE 1030,6 10 0,0
07.12.2017 05:00:00 6,2 4,5 5,6 10 5 17 9 NNE 1031,2 13 0,0
07.12.2017 04:00:00 6,0 4,8 4,8 5 3 10 5 NE 1031,5 10 0,0
07.12.2017 03:00:00 5,4 4,0 4,8 7 4 14 7 NNE 1031,9 6 0,0
07.12.2017 02:00:00 5,7 4,7 4,0 9 5 14 8 ENE 1032,1 6 0,0
07.12.2017 01:00:00 4,3 3,6 3,2 8 4 10 5 ENE 1032,7 5 0,0
07.12.2017 00:00:00 3,4 2,7 0,6 8 4 11 6 ENE 1033,2 4,9 0,0
06.12.2017 23:00:00 3,1 2,1 0,6 5 3 12 7 E 1033,2 4,4 0,0
06.12.2017 22:00:00 3,9 2,9 1,7 8 4 13 7 E 1033,3 5 0,0
06.12.2017 21:00:00 4,4 3,1 1,9 9 5 13 7 E 1033,2 4,9 0,0
06.12.2017 20:00:00 5,0 3,3 2,3 5 3 7 4 ESE 1033,0 9 0,0
06.12.2017 19:00:00 6,2 3,4 3,6 5 3 9 5 ESE 1033,0 10 0,0
06.12.2017 18:00:00 7,7 3,7 4,8 8 4 11 6 S 1032,9 10 0,0
06.12.2017 17:00:00 9,3 4,5 7,5 8 4 13 7 SSE 1032,9 10 0,0
06.12.2017 16:00:00 12,0 4,7 11,4 8 4 11 6 S 1032,8 10 0,0
06.12.2017 15:00:00 14,5 3,6 17,2 2 1 6 4 SSW 1032,6 19 0,0
06.12.2017 14:00:00 13,3 2,5 17,4 2 1 10 5 - 1033,1 10 0,0
06.12.2017 13:00:00 11,7 1,6 15,0 5 3 16 9 N 1033,8 10 0,0

tt = Température de l'air
td = dewpoint
tt 5cm = Température de l'air 5cm
ff = Vitesse du vent
fx = gusts
dd = Direction du vent
ppp = reduced air pressure
vv = visibility
rr = Quantités de précipitations

stations d'obs. à proximité